Погода в Русском Юрткуле

Россия / Ульяновская область     54°44′47″N   49°22′14″E
темп.,
°C
ветер,
м/с
пор.,
м/с
влажн.,
%
обл.,
%
осадки,
мм/ч
давл.,
гПа
погр.,
м
17 мая, пн
пн1701:00+18ююз22545 0.0 101617
04:00+17ю35559 0.0 101661
07:00+20ююз255971 0.0 1017140
10:00+26ююз464051 0.0 1017494
13:00+29юз463535 0.0 1017864
16:00+30юз453244 0.0 10171990
19:00+26ю36463 0.0 1016103
22:00+19юз22612 0.0 101828
18 мая, вт
вт1801:00+18ссв12623 0.0 101711
04:00+17ю11635 0.0 101811
07:00+21ссв12595 0.0 101886
10:00+26св12465 0.0 1018570
13:00+30св23365 0.0 10171830
16:00+30ссв33365 0.0 10171775
19:00+26с235927 0.0 101763
22:00+23в4106127 0.0 1017286
19 мая, ср
ср1901:00+19в4126779 0.1 1018279
04:00+18в410667 0.1 1018234
07:00+19в4106651 0.0 1018302
10:00+24в574921 0.0 1018717
13:00+27в563710 0.0 10171296
16:00+28в56330 0.0 10171687
19:00+24в48510 0.0 1016276
22:00+20вюв412620 0.0 1017259
20 мая, чт
чт2001:00+19юв514570 0.0 1017362
04:00+16юв514610 0.0 1019391
07:00+17юв513600 0.0 1019518
10:00+22юв69450 0.0 1019920
13:00+25ююв68355 0.0 10191585
16:00+25ююв68352 0.0 10191821
19:00+22юв59450 0.0 1018421
22:00+17юв411557 0.0 1019193
21 мая, пт
пт2101:00+15юв41157100 0.0 1019199
04:00+14ююв411590 0.0 1019189
07:00+17ююв39600 0.0 1020267
10:00+23ю46420 0.0 1020828
13:00+25ююз57363 0.0 10201937
16:00+25ююз553613 0.0 10191887
19:00+23юз235767 0.0 1020112
22:00+20зюз125899 0.0 102013